Temperature
17 18 19 19 21 22 22 23 23 23 23 23 22 23 25 25 26 25 21 20 21 20 19 18 17 16 16 16 15 15 15 15 15 14 13 13 13 13 13 13 12 13 13 13 13 13 13 13 13
17 18 19 20 21 22 22 23 23 23 22 22 22 22 24 24 23 21 20 21 21 20 19 17 16 16 15 15 15 15 15 15 14 13 13 13 13 13 13 13 12 13 13 13 13 13 13 13 13
17 18 19 21 21 22 22 23 23 22 22 22 23 23 23 23 21 20 19 21 21 20 19 17 16 16 15 15 15 15 15 15 14 13 13 13 13 13 13 12 12 13 13 13 13 13 13 13 13
16 18 19 21 21 22 22 23 22 22 22 22 22 24 23 21 20 20 20 20 20 20 19 18 16 15 15 15 15 15 15 15 15 14 13 13 13 13 13 13 13 13 13 13 13 13 13 13 13
16 19 20 20 21 22 22 22 21 22 23 23 22 24 23 21 21 20 21 20 19 18 18 18 16 15 15 15 15 15 15 15 15 14 13 13 13 13 13 13 13 13 13 13 14 14 13 14 14
17 19 20 20 21 21 21 21 21 22 22 22 22 23 23 21 20 21 20 19 18 19 18 18 16 15 15 15 15 15 15 15 15 14 13 13 13 13 13 13 13 13 13 14 14 14 13 13 14
18 19 20 20 21 21 21 20 21 22 22 22 22 23 23 21 20 20 20 19 18 18 18 18 16 15 15 15 15 15 14 14 15 14 14 13 13 13 13 13 13 13 13 14 14 13 13 13 13
17 19 19 20 20 21 20 20 20 21 22 21 21 23 23 20 19 19 19 19 18 18 18 17 16 15 15 14 14 14 14 14 14 14 14 14 14 13 13 13 13 13 13 14 14 13 13 12 12
15 17 18 19 19 20 19 20 20 19 20 20 20 21 19 19 19 18 18 18 19 19 18 17 16 16 15 15 14 14 14 14 14 14 14 15 14 13 13 14 14 14 13 13 13 12 12 12 12
15 17 18 19 19 19 18 19 19 19 20 21 21 20 19 18 18 18 18 18 19 19 18 18 17 16 15 15 14 14 14 14 13 13 14 14 14 14 14 14 14 13 13 12 12 12 12 12 12
15 16 18 17 17 17 18 18 17 18 20 21 20 20 19 18 18 18 18 19 18 18 18 18 18 17 16 15 14 14 14 14 13 13 14 15 14 14 14 13 13 12 12 12 12 12 12 12 12
15 15 15 16 15 15 17 17 17 17 18 19 19 18 18 18 19 18 18 18 18 18 18 18 18 18 17 16 15 14 14 14 13 14 14 14 14 13 13 12 12 12 12 11 11 11 12 12 12
14 14 14 14 14 14 15 15 16 16 17 17 17 17 18 18 19 19 18 18 18 18 18 18 19 19 18 17 16 15 14 13 13 14 14 13 13 13 12 12 12 11 11 11 11 11 11 12 12
14 14 13 13 14 14 14 15 16 16 16 16 16 16 17 18 19 19 18 18 18 19 19 19 19 19 18 18 17 16 14 14 13 13 13 13 12 12 12 12 11 11 11 11 11 11 12 12 12
12 13 14 14 14 14 14 15 16 16 16 16 16 16 17 17 18 18 19 18 18 18 18 19 19 19 19 18 17 16 15 14 13 13 13 12 12 12 12 11 11 11 11 11 11 11 11 11 10
12 12 13 14 14 14 13 15 18 16 16 16 16 17 17 17 17 18 19 19 18 18 19 19 19 19 19 18 17 15 14 14 13 13 13 12 12 12 11 11 11 11 11 11 11 11 10 10 9
11 12 13 14 14 14 14 14 16 15 14 15 16 16 16 16 16 17 17 18 18 19 19 19 19 19 19 18 16 15 14 14 14 13 13 12 12 12 11 11 11 11 11 11 11 11 10 10 9
13 12 13 13 14 13 13 14 15 15 15 15 15 15 15 15 15 16 16 17 17 18 19 19 19 19 19 17 15 14 14 14 14 13 13 12 12 12 11 11 11 11 11 11 11 10 10 9 9
12 12 13 13 13 12 13 14 15 15 15 15 15 15 15 15 15 15 15 16 16 17 18 19 19 19 18 17 15 15 14 14 13 13 12 12 12 12 11 11 11 11 11 10 10 10 9 9 9
10 10 11 12 12 12 12 13 14 15 15 14 15 15 15 15 16 16 16 15 16 17 18 18 18 18 18 17 15 15 15 14 13 13 12 12 12 11 11 11 11 11 10 10 10 9 9 8 8
9 9 10 11 11 11 11 12 15 16 15 15 14 14 15 15 16 16 16 16 16 16 17 18 18 18 18 16 14 15 15 14 13 12 12 11 11 11 11 11 11 10 10 9 9 8 8 7 7
9 10 10 10 9 10 10 10 14 15 14 14 15 15 15 15 15 15 16 17 16 16 17 17 17 17 17 16 16 15 14 13 13 12 12 11 11 10 10 10 10 10 9 9 8 8 7 6 5
9 9 9 9 9 9 10 9 12 14 13 14 15 16 16 15 15 15 15 15 16 16 17 17 17 17 17 16 15 13 13 13 13 12 11 10 10 10 10 10 10 9 9 8 8 7 6 6 5
9 8 8 8 8 7 10 10 12 15 15 15 16 16 16 15 15 14 14 14 14 14 16 16 16 16 16 15 13 13 13 13 13 11 11 10 10 10 10 10 9 9 8 8 7 6 6 5 4
8 7 8 8 7 9 12 10 12 15 15 15 15 15 15 15 14 14 14 14 13 13 15 16 16 16 15 13 13 13 13 13 12 11 11 11 10 10 10 9 9 8 8 7 6 5 5 4 3
8 8 8 9 10 11 11 10 13 15 15 14 14 14 13 13 13 13 13 13 13 14 15 15 15 15 14 13 12 13 12 12 12 11 11 11 10 10 9 9 8 7 7 6 5 5 4 3 3
7 7 9 8 8 8 10 12 13 14 14 14 14 14 13 13 13 13 13 12 12 13 14 14 14 14 13 12 12 12 12 11 11 11 10 10 10 9 9 8 7 7 6 5 5 4 3 3 2
9 8 7 6 7 8 11 12 13 14 14 14 14 14 13 13 12 12 12 12 11 11 12 11 12 13 12 12 12 12 11 11 11 11 10 9 9 9 8 7 6 6 5 4 4 3 2 2 1
7 6 6 8 8 8 9 12 15 14 14 14 14 13 12 12 11 11 11 11 10 10 9 9 10 11 12 12 12 11 11 11 10 10 9 9 9 8 7 6 6 5 4 3 3 2 2 1 1
9 8 7 6 7 8 8 11 14 14 14 13 13 12 12 11 10 10 10 9 8 8 8 8 10 11 11 12 11 11 10 10 9 9 9 8 8 7 6 5 5 4 3 3 2 1 1 1 0
Wind_Speed
9 6 4 3 4 6 8 5 4 2 2 3 4 6 5 4 3 0 4 9 8 15 17 18 17 18 17 16 14 12 10 8 7 8 10 11 10 9 7 6 6 7 7 8 7 7 8 8 8
6 4 3 4 6 9 7 6 6 1 4 6 5 6 6 4 2 3 7 9 10 15 16 17 18 17 17 16 14 12 10 8 8 9 10 10 8 7 6 5 5 6 7 8 8 7 7 7 6
2 2 3 5 8 11 5 5 5 1 4 3 3 4 4 1 2 3 5 11 11 15 16 16 18 17 17 16 13 12 10 9 9 9 8 7 6 5 4 4 4 5 6 6 6 6 6 6 5
4 3 5 9 15 12 6 4 1 4 3 2 4 3 2 1 2 3 7 11 11 15 16 16 16 18 18 16 14 12 11 10 9 8 6 5 3 0 3 4 5 6 5 4 4 4 5 5 5
4 6 10 14 18 12 10 5 5 6 5 4 4 4 1 3 2 4 9 10 11 13 14 16 16 18 18 16 14 13 11 10 10 8 6 4 2 3 3 5 7 6 4 2 3 5 6 6 5
6 7 12 17 19 13 10 7 7 8 6 5 4 4 1 4 4 6 9 9 11 13 13 14 15 17 18 16 15 14 12 10 9 8 6 4 3 6 5 3 8 6 3 1 4 6 7 6 6
8 10 17 19 17 15 11 8 10 10 9 6 3 4 2 4 5 8 10 9 10 12 12 12 14 15 16 16 15 14 12 11 9 8 6 5 6 7 7 4 6 4 2 3 5 6 6 5 6
6 7 14 17 18 16 9 7 7 9 8 2 3 6 2 4 4 7 9 9 10 11 12 11 12 13 14 15 15 14 12 11 10 8 7 7 6 4 6 5 6 4 4 5 6 6 7 8 8
5 10 16 17 14 12 8 8 6 3 5 4 4 2 4 3 4 7 9 10 11 11 11 11 12 12 12 13 14 14 13 12 11 10 9 6 4 3 4 6 6 5 5 6 7 8 8 7 9
9 13 18 11 11 8 7 6 4 5 8 8 6 3 2 2 4 8 10 11 12 13 13 12 12 12 12 11 12 12 11 11 11 9 8 5 4 4 3 6 6 6 7 9 9 8 6 3 4
8 11 11 10 10 8 9 9 7 9 13 13 9 5 4 4 3 6 10 10 11 11 13 13 13 12 12 10 10 10 9 9 10 9 8 6 6 5 5 5 5 6 6 6 6 5 5 5 4
7 10 9 8 9 11 14 14 16 18 18 14 12 12 13 12 10 7 8 9 9 10 12 14 15 14 13 12 10 10 9 8 8 10 10 8 6 5 5 4 5 5 5 5 4 4 5 4 4
12 8 9 10 10 12 14 17 17 19 19 18 18 17 19 18 16 12 9 8 10 11 12 14 15 15 14 13 10 10 10 10 10 10 10 9 6 6 6 6 6 6 5 4 4 4 4 4 4
5 8 9 9 12 12 17 20 20 21 18 18 20 21 21 21 20 17 14 12 12 13 13 13 15 16 16 14 13 12 11 11 11 10 11 11 8 7 7 7 6 6 5 5 5 5 3 3 3
4 7 11 13 14 10 12 18 22 24 20 21 21 21 22 22 21 21 19 16 14 13 12 12 14 16 17 16 15 12 12 13 11 11 12 11 10 11 9 7 5 6 6 6 5 4 3 3 3
4 6 7 6 6 7 9 16 12 11 14 18 19 20 20 21 22 22 22 19 15 13 12 10 11 15 17 15 15 12 13 13 11 11 12 13 14 14 11 7 6 7 6 5 4 3 3 4 4
7 8 10 8 8 7 10 14 9 5 8 12 14 15 15 16 18 19 19 18 15 14 12 11 12 15 16 15 13 13 13 12 11 11 12 15 16 16 12 8 8 8 6 5 4 4 4 5 5
7 8 8 9 4 8 15 18 16 15 16 18 17 17 16 16 17 16 16 15 14 13 12 11 12 14 15 13 12 10 11 10 10 11 12 16 16 16 14 9 9 8 6 5 4 5 5 5 5
6 9 12 10 8 12 19 24 22 20 21 23 22 22 22 21 20 18 16 15 13 12 11 11 13 15 15 13 13 12 10 10 9 9 14 16 17 16 13 9 9 7 6 6 5 4 5 5 6
14 15 16 14 12 12 21 29 26 25 27 26 25 25 25 25 24 23 20 16 14 13 12 12 15 17 17 15 13 9 10 8 9 9 11 14 16 15 12 11 9 8 7 7 5 4 3 4 5
15 16 16 15 15 15 19 23 18 13 15 18 20 22 24 25 26 25 24 22 17 15 14 13 16 17 18 16 11 12 9 8 7 9 8 9 13 13 13 12 10 8 7 6 6 4 3 3 3
12 11 14 14 11 8 6 11 14 9 9 11 15 18 20 21 22 23 23 24 20 17 15 16 17 19 18 18 16 19 13 12 11 10 9 10 12 13 13 13 11 9 7 7 6 4 3 2 2
8 4 8 10 12 13 15 11 17 10 13 14 16 18 19 19 18 19 21 21 20 18 16 17 18 19 20 19 19 18 15 13 13 13 14 13 11 12 13 12 11 9 7 7 6 4 3 2 2
8 4 8 10 8 11 17 15 16 13 13 13 13 14 15 14 14 16 18 18 18 16 17 18 20 20 20 20 19 18 19 19 19 18 16 13 10 10 11 11 10 9 7 7 5 4 3 1 1
10 6 5 6 8 11 8 11 16 14 11 14 14 15 15 14 13 13 15 16 16 18 19 20 21 21 21 20 19 18 20 23 24 21 17 15 12 10 11 9 9 8 7 7 5 3 2 1 2
14 11 9 7 8 10 8 14 14 13 13 14 15 14 14 15 14 13 13 14 17 20 21 22 23 22 22 20 18 17 18 16 16 18 16 14 12 11 12 10 9 9 8 6 4 3 2 2 3
8 11 12 9 12 13 13 16 17 17 17 17 15 12 11 13 14 14 12 12 16 19 22 23 23 22 21 20 18 17 16 15 17 16 15 12 12 12 12 10 9 8 7 5 3 2 2 2 4
11 6 7 8 7 12 17 24 17 18 16 13 10 9 10 13 15 14 11 11 14 17 19 20 20 21 20 20 18 15 15 16 17 16 15 14 14 13 12 10 9 7 6 4 3 2 2 3 4
14 10 11 9 10 9 14 15 9 11 11 11 9 8 11 15 17 15 9 9 12 15 17 18 19 19 19 19 17 17 16 16 16 15 15 15 14 13 11 10 8 6 5 3 2 2 2 4 5
17 18 18 12 15 13 13 19 11 12 11 10 10 12 14 16 16 13 6 8 13 16 17 18 18 17 18 18 18 17 18 17 16 16 15 14 13 11 10 9 7 5 4 2 1 2 3 5 6
Wind_Direction
315 317 295 270 255 240 247 234 241 255 246 291 295 266 258 240 234 7 96 147 136 155 161 163 163 159 156 151 145 140 138 133 130 139 139 136 132 126 115 104 87 68 53 47 47 44 42 43 48
314 304 271 260 249 241 233 217 209 233 316 309 274 241 242 244 339 70 133 149 152 157 162 166 160 162 159 153 148 146 143 135 129 131 133 135 134 131 128 124 105 80 65 58 55 51 44 39 36
266 285 261 239 237 241 238 197 179 343 326 294 279 245 260 301 82 110 132 153 158 161 164 158 159 165 160 155 152 150 146 141 135 131 133 137 139 146 158 158 133 105 86 69 59 47 36 27 18
227 211 221 236 237 237 246 172 151 316 334 314 303 266 221 74 78 88 132 159 164 165 165 158 165 166 159 157 156 153 151 148 143 139 136 132 120 169 235 207 163 136 115 84 54 26 16 10 3
215 222 227 234 239 236 234 250 275 291 307 310 301 284 216 119 113 122 146 162 166 166 165 160 166 164 161 160 160 158 158 156 154 152 151 140 86 1 310 217 176 156 136 91 20 2 358 356 354
197 210 228 234 235 230 238 240 255 268 282 294 282 266 155 125 144 143 152 164 166 165 165 162 165 164 163 164 163 163 163 163 163 165 168 155 75 30 13 174 170 161 146 49 6 355 351 354 1
212 216 233 239 243 238 237 232 247 260 260 262 268 255 163 136 124 146 153 158 163 166 169 167 174 173 168 167 166 167 167 167 167 170 168 135 86 49 40 89 146 145 96 24 10 358 359 19 30
227 221 234 235 241 242 229 220 239 251 259 258 240 242 160 63 129 151 154 158 162 170 175 174 180 183 181 176 171 171 170 168 166 161 144 127 114 86 64 87 88 75 40 27 29 37 56 66 62
204 223 231 228 237 241 215 217 210 233 240 232 224 271 32 41 168 174 172 173 173 179 184 183 184 187 187 182 172 176 176 173 170 161 144 160 187 173 139 80 72 61 54 58 66 73 79 84 77
205 228 234 237 236 229 199 210 216 222 223 221 215 186 66 78 190 209 208 198 191 188 189 188 190 189 190 184 180 187 185 181 187 175 166 171 163 154 134 107 91 87 92 89 86 87 83 55 53
212 234 243 233 231 235 234 237 243 247 240 234 239 249 297 307 262 239 239 230 213 202 194 194 191 191 192 189 189 187 187 185 185 178 170 160 156 155 153 146 134 118 111 99 94 85 61 47 34
223 238 243 244 238 244 251 254 251 246 248 253 262 276 281 279 277 271 261 245 230 218 208 201 194 191 193 195 193 191 189 188 183 180 175 169 162 159 147 135 111 103 97 93 83 66 59 42 24
227 243 243 248 250 255 257 252 256 257 256 260 262 263 264 266 267 268 270 261 240 229 219 210 201 195 192 193 195 195 194 190 186 179 177 174 168 156 136 116 102 94 94 94 77 58 47 29 18
239 249 253 257 258 258 258 259 252 253 253 252 251 251 253 255 258 263 262 256 246 237 227 213 206 199 195 193 192 194 192 190 185 179 177 174 161 140 125 111 103 99 94 82 72 59 44 31 20
251 267 265 254 253 254 261 260 247 251 253 251 249 248 249 251 253 255 256 257 255 246 236 220 211 201 197 196 195 192 188 185 184 178 173 163 144 133 124 118 113 108 104 95 79 66 45 39 27
234 250 258 243 234 231 236 261 262 253 252 251 252 252 250 250 250 251 252 254 255 251 239 225 210 206 199 196 196 191 185 182 179 170 159 147 136 131 125 122 118 118 111 98 81 55 40 31 14
226 242 250 258 240 246 242 266 270 252 255 260 260 260 259 257 253 251 251 252 252 247 240 226 210 205 198 194 194 190 181 175 165 154 145 141 136 132 128 124 126 127 117 105 91 62 32 20 5
226 232 247 252 245 260 261 263 265 263 267 269 267 264 261 260 258 257 254 252 250 245 238 227 208 196 187 186 187 174 164 158 149 143 142 140 136 133 128 128 134 131 121 112 101 79 51 22 350
259 251 259 264 273 285 273 273 271 269 266 265 264 264 263 261 259 256 256 255 249 238 228 218 197 180 176 178 174 166 159 148 139 135 138 139 136 134 134 134 134 128 115 109 100 87 58 30 356
247 257 266 278 274 280 283 281 277 267 261 260 261 261 259 258 257 252 249 246 241 231 219 206 188 177 177 180 178 169 143 130 123 123 123 133 134 136 137 137 131 124 117 107 92 77 62 43 18
240 249 261 271 291 280 286 288 276 262 256 256 256 257 256 253 250 246 242 237 232 224 208 194 183 177 177 175 158 138 123 125 122 121 120 131 134 135 135 133 129 125 119 109 95 77 54 43 39
251 250 256 267 272 276 275 290 286 281 266 258 255 252 250 248 245 243 240 232 224 217 201 189 180 176 174 168 166 163 161 157 157 147 138 136 133 133 132 130 127 122 118 116 105 87 70 30 21
243 236 246 256 263 271 255 262 281 265 262 263 258 257 258 257 252 247 241 235 223 209 191 183 177 176 172 172 175 171 162 149 141 136 137 135 133 132 132 132 128 124 121 118 116 111 94 52 3
225 228 253 252 255 260 252 237 274 269 261 265 267 269 273 275 271 261 249 239 225 200 185 179 177 175 172 173 174 168 154 148 147 147 146 142 138 135 134 133 128 128 126 126 127 129 130 118 279
200 208 239 229 226 248 244 231 257 274 253 255 270 281 292 295 290 276 255 232 212 193 185 180 177 174 172 172 171 163 157 156 157 156 155 150 146 144 142 138 135 132 131 132 138 147 161 206 261
201 211 226 250 251 267 243 244 258 268 256 258 265 278 291 297 297 284 264 230 205 193 186 181 178 173 171 169 165 158 157 158 158 158 155 151 147 143 143 139 137 137 138 141 149 163 189 238 268
198 218 236 263 274 273 259 257 265 258 256 256 260 270 290 310 313 297 270 229 205 193 186 183 176 170 167 163 155 153 156 154 152 150 146 139 136 138 141 140 141 141 143 147 162 183 211 256 279
225 214 205 217 252 258 261 263 262 264 257 253 252 280 307 323 324 312 279 227 202 191 184 179 173 165 160 154 149 148 151 148 146 144 140 137 136 138 141 143 144 145 148 155 170 197 243 284 297
203 214 220 235 244 257 270 267 270 267 260 256 268 296 317 325 325 318 287 222 190 178 172 168 163 156 152 148 141 143 142 142 140 136 135 135 136 140 141 144 147 149 154 163 184 237 285 300 303
222 224 221 235 241 241 257 268 274 264 259 264 285 305 318 323 323 318 284 190 169 166 163 158 154 151 147 141 138 138 138 137 133 131 132 133 134 136 138 143 146 147 154 173 231 290 301 302 302
Height
1525 1525 1526 1526 1523 1519 1515 1511 1510 1510 1508 1509 1509 1508 1504 1502 1503 1507 1507 1505 1507 1509 1511 1512 1514 1516 1517 1518 1519 1520 1520 1520 1519 1520 1521 1523 1524 1524 1525 1525 1524 1523 1522 1521 1521 1522 1523 1523 1523
1524 1525 1527 1525 1520 1518 1512 1508 1509 1509 1509 1509 1508 1507 1505 1503 1505 1506 1505 1505 1507 1509 1512 1513 1515 1517 1518 1519 1520 1520 1520 1520 1520 1521 1522 1523 1525 1525 1526 1526 1525 1524 1523 1522 1522 1522 1522 1523 1523
1522 1524 1526 1521 1517 1513 1509 1506 1507 1509 1509 1508 1507 1506 1505 1504 1505 1506 1505 1505 1507 1509 1512 1513 1514 1517 1518 1520 1521 1521 1521 1520 1520 1521 1522 1524 1525 1526 1526 1527 1526 1525 1525 1524 1523 1523 1523 1523 1523
1522 1523 1523 1518 1512 1507 1507 1506 1509 1509 1508 1507 1506 1504 1505 1505 1505 1505 1505 1506 1507 1509 1511 1512 1514 1517 1518 1520 1521 1521 1521 1521 1521 1521 1523 1524 1525 1526 1527 1527 1527 1527 1526 1525 1524 1524 1524 1524 1523
1520 1520 1517 1513 1508 1505 1507 1509 1511 1508 1507 1506 1506 1503 1503 1504 1504 1505 1505 1506 1508 1510 1511 1512 1514 1516 1518 1519 1520 1521 1521 1521 1521 1522 1523 1524 1525 1526 1527 1528 1528 1528 1527 1526 1525 1525 1525 1525 1524
1518 1515 1512 1508 1502 1504 1506 1509 1510 1507 1506 1506 1505 1503 1502 1503 1503 1504 1505 1506 1508 1509 1511 1512 1513 1516 1517 1519 1520 1521 1521 1522 1522 1523 1523 1524 1525 1526 1527 1528 1528 1528 1527 1527 1526 1526 1526 1526 1525
1514 1510 1505 1502 1500 1501 1504 1507 1507 1505 1504 1505 1505 1503 1502 1504 1503 1504 1505 1506 1507 1509 1510 1512 1513 1515 1517 1518 1519 1520 1521 1522 1522 1523 1524 1524 1525 1526 1527 1528 1528 1528 1527 1527 1527 1527 1527 1527 1526
1511 1509 1504 1502 1500 1499 1503 1505 1505 1505 1503 1505 1505 1502 1501 1505 1503 1504 1504 1505 1506 1508 1510 1511 1513 1515 1517 1518 1518 1520 1521 1522 1522 1523 1523 1524 1525 1526 1527 1527 1528 1527 1527 1527 1527 1527 1527 1527 1526
1510 1508 1501 1498 1500 1498 1503 1503 1503 1504 1504 1503 1503 1503 1503 1502 1502 1503 1504 1505 1505 1506 1508 1510 1512 1514 1516 1517 1518 1519 1520 1521 1522 1522 1523 1524 1525 1526 1526 1526 1527 1527 1527 1527 1527 1527 1527 1526 1525
1507 1502 1496 1496 1499 1499 1502 1502 1502 1502 1500 1500 1501 1502 1501 1501 1502 1503 1504 1505 1504 1505 1506 1508 1510 1511 1513 1515 1516 1518 1519 1520 1521 1522 1522 1523 1524 1525 1525 1526 1527 1527 1527 1527 1527 1526 1526 1525 1524
1503 1498 1496 1500 1502 1502 1501 1502 1502 1501 1497 1497 1498 1500 1500 1500 1501 1501 1502 1503 1504 1505 1505 1506 1507 1509 1511 1512 1514 1515 1517 1518 1519 1520 1521 1521 1522 1524 1525 1526 1526 1527 1527 1527 1526 1525 1524 1523 1522
1502 1500 1501 1500 1501 1501 1500 1499 1499 1498 1496 1497 1497 1497 1497 1497 1498 1498 1499 1500 1501 1502 1502 1503 1504 1505 1507 1509 1511 1513 1514 1515 1517 1517 1518 1520 1521 1522 1524 1525 1526 1526 1526 1526 1525 1524 1522 1521 1520
1500 1499 1500 1501 1501 1500 1499 1497 1496 1493 1493 1494 1494 1494 1493 1493 1494 1495 1495 1496 1497 1498 1499 1500 1501 1502 1503 1505 1507 1509 1511 1513 1514 1515 1516 1518 1519 1521 1522 1523 1524 1525 1525 1524 1523 1522 1520 1519 1517
1498 1498 1498 1499 1498 1497 1496 1492 1493 1486 1489 1489 1489 1488 1488 1489 1489 1490 1491 1492 1493 1494 1496 1497 1498 1499 1499 1501 1502 1505 1507 1509 1511 1512 1514 1515 1517 1519 1520 1521 1523 1523 1523 1522 1521 1520 1518 1516 1514
1499 1498 1495 1493 1494 1492 1492 1486 1482 1481 1483 1483 1482 1482 1482 1483 1484 1484 1485 1487 1488 1490 1491 1492 1493 1494 1495 1496 1498 1501 1503 1506 1508 1510 1512 1513 1515 1517 1519 1520 1521 1521 1521 1521 1519 1518 1516 1513 1511
1497 1496 1493 1487 1489 1488 1492 1478 1473 1476 1477 1476 1476 1476 1476 1476 1477 1478 1479 1481 1482 1483 1485 1486 1488 1489 1490 1491 1494 1496 1499 1502 1504 1507 1509 1511 1513 1515 1516 1518 1519 1520 1520 1519 1517 1516 1514 1512 1510
1495 1490 1487 1486 1485 1485 1484 1475 1472 1474 1474 1473 1472 1471 1470 1470 1470 1471 1472 1474 1475 1476 1478 1480 1482 1483 1484 1486 1489 1493 1495 1497 1500 1503 1505 1508 1510 1512 1514 1516 1517 1518 1518 1517 1516 1515 1513 1511 1509
1485 1488 1485 1484 1482 1483 1478 1471 1470 1471 1470 1468 1467 1466 1466 1465 1464 1464 1465 1466 1467 1469 1471 1474 1475 1477 1479 1481 1484 1488 1490 1493 1496 1499 1502 1504 1507 1510 1512 1514 1516 1516 1516 1516 1515 1513 1511 1510 1508
1486 1485 1483 1481 1482 1482 1473 1466 1464 1464 1463 1462 1461 1459 1458 1457 1457 1458 1458 1458 1459 1461 1464 1466 1468 1470 1472 1474 1477 1480 1484 1487 1491 1495 1498 1501 1504 1507 1509 1512 1514 1514 1514 1514 1513 1511 1509 1508 1506
1489 1489 1486 1483 1482 1481 1470 1458 1456 1455 1452 1453 1452 1451 1450 1449 1449 1449 1450 1451 1452 1454 1457 1459 1461 1463 1466 1469 1472 1475 1479 1483 1487 1491 1494 1498 1501 1504 1507 1510 1512 1512 1512 1512 1511 1509 1508 1506 1504
1488 1488 1486 1485 1482 1478 1474 1450 1439 1437 1440 1443 1443 1442 1439 1438 1438 1439 1441 1442 1444 1446 1449 1452 1454 1456 1459 1463 1466 1469 1474 1479 1483 1487 1491 1495 1499 1502 1505 1508 1509 1510 1510 1510 1509 1508 1506 1504 1502
1486 1484 1486 1486 1487 1477 1475 1460 1431 1433 1437 1437 1436 1432 1428 1427 1427 1428 1429 1432 1435 1438 1441 1444 1447 1450 1453 1456 1460 1464 1469 1474 1479 1484 1488 1492 1496 1500 1503 1505 1506 1507 1507 1507 1507 1506 1504 1502 1501
1483 1485 1486 1485 1483 1480 1470 1471 1432 1430 1431 1429 1426 1423 1421 1420 1420 1420 1421 1423 1426 1429 1433 1437 1440 1443 1447 1451 1456 1462 1467 1471 1475 1480 1485 1489 1493 1497 1500 1502 1503 1504 1504 1504 1504 1503 1501 1500 1499
1484 1487 1487 1484 1485 1477 1456 1459 1430 1418 1419 1419 1418 1417 1416 1415 1415 1414 1414 1416 1419 1421 1424 1429 1433 1437 1441 1445 1452 1458 1462 1467 1471 1476 1481 1486 1490 1494 1497 1499 1501 1501 1501 1501 1501 1500 1498 1497 1495
1484 1487 1482 1478 1475 1459 1443 1446 1425 1412 1416 1415 1414 1413 1412 1411 1410 1408 1407 1408 1410 1412 1416 1421 1426 1430 1435 1440 1447 1453 1459 1464 1469 1473 1479 1483 1487 1491 1494 1497 1498 1499 1498 1498 1497 1496 1495 1494 1492
1477 1477 1473 1464 1451 1439 1440 1436 1415 1409 1411 1411 1411 1410 1408 1406 1404 1401 1400 1400 1401 1404 1409 1414 1420 1425 1429 1435 1442 1450 1456 1462 1467 1472 1477 1481 1485 1489 1492 1495 1496 1496 1495 1494 1494 1493 1492 1490 1488
1474 1474 1468 1467 1457 1452 1434 1417 1407 1405 1407 1406 1405 1405 1403 1401 1398 1395 1393 1393 1395 1398 1403 1409 1414 1419 1425 1431 1438 1446 1453 1459 1465 1470 1475 1479 1484 1487 1490 1492 1493 1493 1492 1491 1490 1489 1488 1486 1484
1467 1466 1469 1469 1455 1440 1421 1409 1400 1395 1396 1398 1398 1399 1398 1396 1393 1389 1387 1387 1390 1393 1399 1405 1411 1415 1421 1428 1435 1443 1450 1457 1463 1468 1473 1478 1482 1485 1487 1489 1490 1489 1488 1488 1487 1485 1484 1482 1480
1464 1467 1463 1455 1447 1438 1420 1401 1387 1391 1392 1393 1394 1395 1394 1392 1389 1385 1383 1383 1386 1390 1396 1402 1408 1413 1419 1426 1433 1441 1448 1456 1461 1467 1472 1477 1480 1483 1485 1486 1486 1486 1485 1484 1483 1481 1480 1477 1475
1450 1449 1451 1451 1439 1432 1422 1399 1388 1390 1389 1391 1392 1392 1390 1388 1385 1382 1379 1380 1383 1387 1393 1399 1405 1412 1418 1425 1432 1440 1447 1454 1460 1466 1471 1475 1478 1480 1482 1483 1483 1483 1482 1481 1479 1477 1475 1472 1469